Powrót do katalogu

STARLINK-37296

AktywnyŁącznośćSSO
NORAD 68672·PAYLOAD·🇺🇸 United States

Wystrzelony Apr 11, 2026 z Vandenberg Space Force Base

Loading…

Następne Przeloty (najbliższe 24 godziny)

TLE

ŚwieżeSource: CelesTrak SupGP

Epoka: Sep 15, 2026, 02:41 UTC

1 68672C 26077L   26258.11229167  .00084574  00000+0  26222-2 0  2584
2 68672  97.2845 128.0678 0001659  98.6355   2.3656 15.33434499    13

Śledź STARLINK-37296 w czasie rzeczywistym z AllMySat

Download on the App Store